COSMOS 1375 DEB

Satellite information

Favourite Embed

Satellite Type and Status

DEBRISIN ORBIT

Key statistics

Satellite COSMOS 1375 DEB at a glance.

Uptime

15897

Days in orbit

Revolutions

≈ 14.0

Per day

Orbit

LEO

Low Earth Orbit

Inclination

65.8

Latest

Satellite identification and parameters

Extended collection of information and parameters for COSMOS 1375 DEB.

Object identification

Identified? True

Debris? True

Object name: COSMOS 1375 DEB

International designator: 1982-055BQ

Object number (NORAD): 27803

Object ID (CCSDS): 27803

Country: COMMONWEALTH OF INDEPENDENT STATES (CIS)

Current information (Y/N): Y

RCS size: SMALL

Orbital parameters

Period: 102.545 minutes

Inclination: 65.8146 deg

SMA: 7257.226 km

Apoapsis: 899.024 km

Periapsis: 859.158 km

RAAN: 245.805 deg

Eccentricy: 0.0027466

Argument of periapsis: 189.3754 deg

Mean anomaly: 288.4506 deg

Mean motion: 14.042576 rev/day

Mean motion (dot): 0.00001619 rev/day2

B* drag term: 0.0010691216 1/REarth

Two-line elements (TLE)

Creation date: Dec. 9, 2025, 1:02 p.m.

Reference frame: TEME

Reference center: EARTH

Epoch: Dec. 9, 2025, 2:37 a.m. UTC

TLE line 0: 0 COSMOS 1375 DEB

TLE line 1: 1 27803U 82055BQ 25343.10938157 .00001619 00000-0 10691-2 0 9997

TLE line 2: 2 27803 65.8146 245.8050 0027466 189.3754 288.4506 14.04257600765323

Live tracking on map

Real-time ground track for satellite COSMOS 1375 DEB.

In-orbit conjunctions

A list of the most updated potential collisions computed for object COSMOS 1375 DEB.

Target Orbit TCA Probability of collision Miss distance Type
COSMOS 1275 DEB LEO 2025-11-10 01:57:49 0.0001013982 290.0 (m) DEBRIS
SL-16 DEB LEO 2025-11-05 09:58:48 0.0001086347 49.0 (m) DEBRIS
METEOR 1-22 LEO 2025-03-11 11:40:16 0.0001798188 333.0 (m) PAYLOAD
FENGYUN 1C DEB SSO 2025-03-03 14:51:30 0.0001449612 222.0 (m) DEBRIS

Associated space launch

ASAT target satellite

COSMOS 1375 DEB was lifted into orbit during the mission ‘Kosmos-3M | DS-P1-M 16’, on board a Kosmos-3M space rocket.

The launch took place on June 6, 1982, 5:10 p.m. from 132/2.

For more information about the launch, click the button.

Launch to space Kosmos-3M | DS-P1-M 16
Kosmos-3M | DS-P1-M 16

Agency: N/A

Status: Launch Successful

Launch date: June 6, 1982, 5:10 p.m. UTC

Rocket: Kosmos-3M

Launch pad: 132/2

Location: Plesetsk Cosmodrome, Russian Federation

...

Latest news about this satellite

There are no fresh news available about this satellite. Check back as we update our databases every day.


Newsletter sign-up

Weekly statistics, charts and insights to help you stay on top of the space industry.